This demonstration page uses our WeatherBlox Daily Observations layout. Learn more.

Hourly Observations for October 29, 2019

Temp ( °F °C ) Dew Point ( °F °C ) Humidity (%) Winds ( mph kmh ) Pressure ( in mb ) Visibility ( mi km ) Precip ( " mm )
12:18 am 00:18 Mostly Clear with Mist and Fog 25 -3.9 22 -5.6 88 88 Calm 30.27 1025 1.5 2.414016 0 0
12:24 am 00:24 Mostly Cloudy with Mist and Fog 26 -3.3 23 -5 88 88 Calm 30.27 1025 0.75 1.207008 0 0
12:35 am 00:35 Mostly Clear with Mist and Fog 25 -3.9 23 -5 92 92 Calm 30.3 1026 1.25 2.01168 0 0
12:39 am 00:39 Mostly Clear with Mist and Fog 26 -3.3 23 -5 88 88 Calm 30.3 1026 3 4.828032 0 0
12:54 am 00:54 Mostly Clear with Mist and Fog 26 -3.3 24 -4.4 92 92 Calm 30.21 1023 4 6.437376 0 0
1:02 am 01:02 Mostly Clear with Mist and Fog 25 -3.9 23 -5 92 92 Calm 30.3 1026 1.75 2.816352 0 0
1:13 am 01:13 Mostly Clear with Mist and Fog 25 -3.9 23 -5 92 92 Calm 30.3 1026 3 4.828032 0 0
1:54 am 01:54 Clear 26 -3.3 23 -5 88 88 WNW 3 6 30.21 1023 8 12.874752 0 0
2:54 am 02:54 Clear 23 -5 21 -6.1 92 92 S 6 9 30.24 1024 7 11.265408 0 0
3:54 am 03:54 Clear 24 -4.4 22 -5.6 91 91 Calm 30.24 1024 10 16.09344 0 0
4:54 am 04:54 Mostly Clear 24 -4.4 22 -5.6 91 91 SSW 3 6 30.24 1024 10 16.09344 0 0
5:54 am 05:54 Clear 24 -4.4 22 -5.6 91 91 SSW 3 6 30.24 1024 10 16.09344 0 0
6:54 am 06:54 Clear 23 -5 20 -6.7 88 88 S 5 7 30.27 1025 10 16.09344 0 0
7:54 am 07:54 Partly Cloudy 22 -5.6 20 -6.7 92 92 SSE 3 6 30.3 1026 9 14.484096 0 0
8:54 am 08:54 Partly Cloudy 25 -3.9 23 -5 92 92 SSE 5 7 30.33 1027 10 16.09344 0 0
9:54 am 09:54 Mostly Sunny 27 -2.8 24 -4.4 89 89 Calm 30.33 1027 10 16.09344 0 0
10:54 am 10:54 Mostly Sunny 29 -1.7 26 -3.3 89 89 Calm 30.33 1027 10 16.09344 0 0
11:54 am 11:54 Partly Cloudy 32 0 27 -2.8 82 82 Calm 30.36 1028 10 16.09344 0 0
12:54 pm 12:54 Mostly Sunny 34 1.1 27 -2.8 76 76 SSW 5 7 30.33 1027 10 16.09344 0 0
1:43 pm 13:43 Mostly Cloudy 35 1.7 27 -2.8 72 72 S 3 6 30.33 1027 10 16.09344 0 0
1:54 pm 13:54 Mostly Cloudy 35 1.7 27 -2.8 72 72 SW 3 6 30.33 1027 10 16.09344 0 0
2:49 pm 14:49 Mostly Cloudy 37 3 27 -3 65 65 N 3 6 30.33 1027 10 16.09344 0 0
2:54 pm 14:54 Mostly Cloudy 37 2.8 26 -3.3 65 65 VRB 3 6 30.33 1027 10 16.09344 0 0
3:31 pm 15:31 Partly Cloudy 37 2.8 26 -3.3 65 65 Calm 30.33 1027 10 16.09344 0 0
3:54 pm 15:54 Partly Cloudy 38 3.3 26 -3.3 62 62 N 5 7 30.33 1027 10 16.09344 0 0
4:30 pm 16:30 Cloudy 37 2.8 26 -3.3 65 65 N 8 13 30.33 1027 10 16.09344 0 0
4:42 pm 16:42 Cloudy 37 2.8 26 -3.3 65 65 N 8 13 30.33 1027 10 16.09344 0 0
4:54 pm 16:54 Mostly Cloudy 37 2.8 25 -3.9 62 62 N 8 13 30.33 1027 10 16.09344 0 0
5:54 pm 17:54 Cloudy 37 2.8 25 -3.9 62 62 N 7 11 30.33 1027 10 16.09344 0 0
6:54 pm 18:54 Cloudy 35 1.7 26 -3.3 70 70 N 6 9 30.33 1027 10 16.09344 0 0
7:54 pm 19:54 Mostly Clear 36 2.2 26 -3.3 67 67 NNW 8 13 30.33 1027 10 16.09344 0 0
8:54 pm 20:54 Partly Cloudy 34 1.1 24 -4.4 67 67 N 16 26 30.36 1028 10 16.09344 0 0
9:54 pm 21:54 Clear 32 0 23 -5 69 69 N 13 20 30.39 1029 10 16.09344 0 0
10:54 pm 22:54 Clear 32 0 23 -5 69 69 N 13 20 30.39 1029 10 16.09344 0 0
11:54 pm 23:54 Mostly Cloudy 31 -0.6 22 -5.6 69 69 N 12 19 30.39 1029 10 16.09344 0 0

Powered by AerisWeather